Time,TemperatureF,DewpointF,PressureIn,WindDirection,WindDirectionDegrees,WindSpeedMPH,WindSpeedGustMPH,Humidity,HourlyPrecipIn,Conditions,Clouds,dailyrainin,SoftwareType,DateUTC
2013-07-02 00:13:00,76.1,71.3,29.96,SSE,157,2.2,-999.0,85,-99.99,,,0.00,Acu-Link.com,2013-07-02 04:13:00,
2013-07-02 00:28:00,76.5,71.3,29.96,South,180,2.7,-999.0,84,-99.99,,,0.00,Acu-Link.com,2013-07-02 04:28:00,
2013-07-02 00:44:00,75.9,71.1,29.96,ESE,112,4.7,-999.0,85,-99.99,,,0.00,Acu-Link.com,2013-07-02 04:44:00,
2013-07-02 00:59:00,75.9,71.1,29.96,South,180,2.7,-999.0,85,-99.99,,,0.00,Acu-Link.com,2013-07-02 04:59:00,
2013-07-02 01:14:00,75.9,71.1,29.96,SSE,157,4.2,-999.0,85,-99.99,,,0.00,Acu-Link.com,2013-07-02 05:14:00,
2013-07-02 01:30:00,75.9,71.1,29.96,SSE,157,4.7,-999.0,85,-99.99,,,0.00,Acu-Link.com,2013-07-02 05:30:00,
2013-07-02 01:45:00,75.9,71.1,29.95,ESE,112,6.8,-999.0,85,-99.99,,,0.00,Acu-Link.com,2013-07-02 05:45:00,
2013-07-02 02:00:00,76.1,71.3,29.95,ESE,112,2.2,-999.0,85,-99.99,,,0.00,Acu-Link.com,2013-07-02 06:00:00,
2013-07-02 02:16:00,75.9,71.1,29.95,SSW,202,4.2,-999.0,85,-99.99,,,0.00,Acu-Link.com,2013-07-02 06:16:00,
2013-07-02 02:31:00,75.7,70.9,29.95,East,90,2.7,-999.0,85,-99.99,,,0.00,Acu-Link.com,2013-07-02 06:31:00,
2013-07-02 02:46:00,75.6,70.8,29.95,NE,45,1.7,-999.0,85,-99.99,,,0.00,Acu-Link.com,2013-07-02 06:46:00,
2013-07-02 03:01:00,75.2,70.4,29.95,ESE,112,1.7,-999.0,85,-99.99,,,0.00,Acu-Link.com,2013-07-02 07:01:00,
2013-07-02 03:17:00,74.8,70.3,29.95,SE,135,1.7,-999.0,86,-99.99,,,0.00,Acu-Link.com,2013-07-02 07:17:00,
2013-07-02 03:32:00,75.0,70.5,29.95,SSW,202,3.2,-999.0,86,-99.99,,,0.00,Acu-Link.com,2013-07-02 07:32:00,
2013-07-02 03:47:00,75.0,70.5,29.95,NNE,22,2.2,-999.0,86,-99.99,,,0.00,Acu-Link.com,2013-07-02 07:47:00,
2013-07-02 04:02:00,75.2,70.7,29.96,ENE,67,2.2,-999.0,86,-99.99,,,0.00,Acu-Link.com,2013-07-02 08:02:00,
2013-07-02 04:19:00,75.2,70.7,29.96,East,90,2.7,-999.0,86,-99.99,,,0.00,Acu-Link.com,2013-07-02 08:19:00,
2013-07-02 04:34:00,75.4,70.9,29.96,SE,135,3.7,-999.0,86,-99.99,,,0.00,Acu-Link.com,2013-07-02 08:34:00,
2013-07-02 04:49:00,75.2,70.7,29.97,ESE,112,3.7,-999.0,86,-99.99,,,0.00,Acu-Link.com,2013-07-02 08:49:00,
2013-07-02 05:04:00,75.0,70.5,29.97,SSE,157,2.2,-999.0,86,-99.99,,,0.00,Acu-Link.com,2013-07-02 09:04:00,
2013-07-02 05:19:00,75.0,70.9,29.97,SSE,157,2.2,-999.0,87,-99.99,,,0.00,Acu-Link.com,2013-07-02 09:19:00,
2013-07-02 05:34:00,75.4,70.9,29.97,SSW,202,2.7,-999.0,86,-99.99,,,0.00,Acu-Link.com,2013-07-02 09:34:00,
2013-07-02 05:49:00,75.4,70.9,29.97,ESE,112,3.7,-999.0,86,-99.99,,,0.00,Acu-Link.com,2013-07-02 09:49:00,
2013-07-02 06:05:00,75.6,71.1,29.98,SE,135,2.7,-999.0,86,-99.99,,,0.00,Acu-Link.com,2013-07-02 10:05:00,
2013-07-02 06:20:00,75.7,71.2,29.99,WNW,292,1.7,-999.0,86,-99.99,,,0.00,Acu-Link.com,2013-07-02 10:20:00,
2013-07-02 06:35:00,75.9,71.4,29.98,ESE,112,4.7,-999.0,86,-99.99,,,0.00,Acu-Link.com,2013-07-02 10:35:00,
2013-07-02 06:51:00,76.1,71.3,29.99,South,180,3.7,-999.0,85,-99.99,,,0.00,Acu-Link.com,2013-07-02 10:51:00,
2013-07-02 07:06:00,76.5,71.3,30.00,NE,45,3.7,-999.0,84,-99.99,,,0.00,Acu-Link.com,2013-07-02 11:06:00,
2013-07-02 07:21:00,76.3,71.1,29.99,WNW,292,3.2,-999.0,84,-99.99,,,0.00,Acu-Link.com,2013-07-02 11:21:00,
2013-07-02 07:36:00,76.6,71.0,30.00,WSW,247,2.2,-999.0,83,-99.99,,,0.00,Acu-Link.com,2013-07-02 11:36:00,
2013-07-02 07:52:00,76.6,71.0,30.01,SSW,202,4.7,-999.0,83,-99.99,,,0.00,Acu-Link.com,2013-07-02 11:52:00,
2013-07-02 08:07:00,76.8,71.2,30.01,ESE,112,5.3,-999.0,83,-99.99,,,0.00,Acu-Link.com,2013-07-02 12:07:00,
2013-07-02 08:22:00,77.2,71.3,30.01,West,270,2.7,-999.0,82,-99.99,,,0.00,Acu-Link.com,2013-07-02 12:22:00,
2013-07-02 08:38:00,77.5,71.2,30.01,SW,225,5.3,-999.0,81,-99.99,,,0.00,Acu-Link.com,2013-07-02 12:38:00,
2013-07-02 08:53:00,77.7,71.0,30.02,South,180,2.2,-999.0,80,-99.99,,,0.00,Acu-Link.com,2013-07-02 12:53:00,
2013-07-02 09:08:00,77.7,71.4,30.02,ESE,112,0.0,-999.0,81,-99.99,,,0.00,Acu-Link.com,2013-07-02 13:08:00,
2013-07-02 09:23:00,77.9,71.6,30.02,SSW,202,2.7,-999.0,81,-99.99,,,0.00,Acu-Link.com,2013-07-02 13:23:00,
2013-07-02 09:39:00,78.3,71.6,30.02,WNW,292,5.3,-999.0,80,-99.99,,,0.00,Acu-Link.com,2013-07-02 13:39:00,
2013-07-02 09:54:00,78.4,71.3,30.02,WSW,247,4.7,-999.0,79,-99.99,,,0.00,Acu-Link.com,2013-07-02 13:54:00,
2013-07-02 10:09:00,78.1,71.4,30.02,South,180,6.3,-999.0,80,-99.99,,,0.00,Acu-Link.com,2013-07-02 14:09:00,
2013-07-02 10:24:00,79.5,71.6,30.02,South,180,3.7,-999.0,77,-99.99,,,0.00,Acu-Link.com,2013-07-02 14:24:00,
2013-07-02 10:40:00,80.1,71.8,30.02,West,270,3.2,-999.0,76,-99.99,,,0.00,Acu-Link.com,2013-07-02 14:40:00,
2013-07-02 10:55:00,79.9,71.6,30.02,West,270,3.7,-999.0,76,-99.99,,,0.00,Acu-Link.com,2013-07-02 14:55:00,
2013-07-02 11:10:00,79.7,71.4,30.02,South,180,5.3,-999.0,76,-99.99,,,0.00,Acu-Link.com,2013-07-02 15:10:00,
2013-07-02 11:26:00,81.0,72.3,30.02,West,270,8.3,-999.0,75,-99.99,,,0.00,Acu-Link.com,2013-07-02 15:26:00,
2013-07-02 11:41:00,81.0,72.3,30.03,South,180,4.2,-999.0,75,-99.99,,,0.00,Acu-Link.com,2013-07-02 15:41:00,
2013-07-02 11:56:00,81.1,72.0,30.02,SSW,202,4.7,-999.0,74,-99.99,,,0.00,Acu-Link.com,2013-07-02 15:56:00,
2013-07-02 12:11:00,80.6,71.9,30.02,SW,225,3.2,-999.0,75,-99.99,,,0.00,Acu-Link.com,2013-07-02 16:11:00,
2013-07-02 12:27:00,80.4,71.7,30.04,SSW,202,5.8,-999.0,75,-99.99,,,0.00,Acu-Link.com,2013-07-02 16:27:00,
2013-07-02 12:42:00,80.8,72.5,30.03,SW,225,3.2,-999.0,76,-99.99,,,0.00,Acu-Link.com,2013-07-02 16:42:00,
2013-07-02 12:57:00,80.6,72.3,30.04,East,90,0.0,-999.0,76,-99.99,,,0.00,Acu-Link.com,2013-07-02 16:57:00,
2013-07-02 13:13:00,80.8,72.9,30.03,South,180,6.3,-999.0,77,-99.99,,,0.00,Acu-Link.com,2013-07-02 17:13:00,
2013-07-02 13:28:00,79.9,72.8,30.04,SW,225,3.2,-999.0,79,-99.99,,,0.00,Acu-Link.com,2013-07-02 17:28:00,
2013-07-02 13:43:00,79.5,72.4,30.03,SSW,202,4.2,-999.0,79,-99.99,,,0.00,Acu-Link.com,2013-07-02 17:43:00,
2013-07-02 13:58:00,82.2,73.5,30.03,NE,45,2.2,-999.0,75,-99.99,,,0.00,Acu-Link.com,2013-07-02 17:58:00,
2013-07-02 14:13:00,82.9,72.9,30.02,South,180,6.8,-999.0,72,-99.99,,,0.00,Acu-Link.com,2013-07-02 18:13:00,
2013-07-02 14:28:00,83.1,72.3,30.02,South,180,1.7,-999.0,70,-99.99,,,0.00,Acu-Link.com,2013-07-02 18:28:00,
2013-07-02 14:44:00,86.2,73.0,30.02,ESE,112,6.3,-999.0,65,-99.99,,,0.00,Acu-Link.com,2013-07-02 18:44:00,
2013-07-02 14:59:00,85.3,72.2,30.00,South,180,5.3,-999.0,65,-99.99,,,0.00,Acu-Link.com,2013-07-02 18:59:00,
2013-07-02 15:14:00,85.3,72.6,30.00,South,180,3.7,-999.0,66,-99.99,,,0.00,Acu-Link.com,2013-07-02 19:14:00,
2013-07-02 15:29:00,85.3,73.5,29.99,SSW,202,0.0,-999.0,68,-99.99,,,0.00,Acu-Link.com,2013-07-02 19:29:00,
2013-07-02 15:45:00,85.1,73.3,30.00,SSW,202,2.7,-999.0,68,-99.99,,,0.00,Acu-Link.com,2013-07-02 19:45:00,
2013-07-02 16:00:00,85.6,73.8,29.99,East,90,0.0,-999.0,68,-99.99,,,0.00,Acu-Link.com,2013-07-02 20:00:00,
2013-07-02 16:15:00,85.6,73.4,30.00,ESE,112,7.3,-999.0,67,-99.99,,,0.00,Acu-Link.com,2013-07-02 20:15:00,
2013-07-02 16:30:00,87.3,74.1,29.99,WNW,292,1.7,-999.0,65,-99.99,,,0.00,Acu-Link.com,2013-07-02 20:30:00,
2013-07-02 16:46:00,86.2,73.0,29.99,SSW,202,3.7,-999.0,65,-99.99,,,0.00,Acu-Link.com,2013-07-02 20:46:00,
2013-07-02 17:01:00,85.8,73.1,29.99,SSW,202,2.7,-999.0,66,-99.99,,,0.00,Acu-Link.com,2013-07-02 21:01:00,
2013-07-02 17:16:00,86.2,72.1,29.99,SSW,202,1.7,-999.0,63,-99.99,,,0.00,Acu-Link.com,2013-07-02 21:16:00,
2013-07-02 17:31:00,86.5,71.9,29.99,South,180,9.9,-999.0,62,-99.99,,,0.00,Acu-Link.com,2013-07-02 21:31:00,
2013-07-02 17:47:00,87.1,72.0,29.99,East,90,4.2,-999.0,61,-99.99,,,0.00,Acu-Link.com,2013-07-02 21:47:00,
2013-07-02 18:02:00,86.9,71.8,30.00,West,270,4.7,-999.0,61,-99.99,,,0.00,Acu-Link.com,2013-07-02 22:02:00,
2013-07-02 18:17:00,87.6,72.5,30.00,SW,225,3.2,-999.0,61,-99.99,,,0.00,Acu-Link.com,2013-07-02 22:17:00,
2013-07-02 18:33:00,86.9,72.3,30.00,South,180,2.7,-999.0,62,-99.99,,,0.00,Acu-Link.com,2013-07-02 22:33:00,
2013-07-02 18:48:00,85.5,72.4,30.01,SSW,202,2.7,-999.0,65,-99.99,,,0.00,Acu-Link.com,2013-07-02 22:48:00,
2013-07-02 19:03:00,85.5,72.4,30.02,SSW,202,4.2,-999.0,65,-99.99,,,0.00,Acu-Link.com,2013-07-02 23:03:00,
2013-07-02 19:18:00,84.9,71.8,30.02,SW,225,4.7,-999.0,65,-99.99,,,0.00,Acu-Link.com,2013-07-02 23:18:00,
2013-07-02 19:34:00,84.7,71.6,30.02,SSE,157,7.3,-999.0,65,-99.99,,,0.00,Acu-Link.com,2013-07-02 23:34:00,
2013-07-02 19:49:00,84.2,72.0,30.03,South,180,4.2,-999.0,67,-99.99,,,0.00,Acu-Link.com,2013-07-02 23:49:00,
2013-07-02 20:04:00,82.8,72.4,30.04,SSW,202,7.3,-999.0,71,-99.99,,,0.00,Acu-Link.com,2013-07-03 00:04:00,
2013-07-02 20:19:00,80.6,73.1,30.05,South,180,5.3,-999.0,78,-99.99,,,0.02,Acu-Link.com,2013-07-03 00:19:00,
2013-07-02 20:34:00,77.7,76.1,30.05,South,180,9.9,-999.0,95,-99.99,,,0.05,Acu-Link.com,2013-07-03 00:34:00,
2013-07-02 20:49:00,77.2,76.0,30.05,SSE,157,3.7,-999.0,96,-99.99,,,0.07,Acu-Link.com,2013-07-03 00:49:00,
2013-07-02 21:05:00,76.8,71.2,30.06,ESE,112,5.8,-999.0,83,-99.99,,,0.07,Acu-Link.com,2013-07-03 01:05:00,
2013-07-02 21:20:00,76.6,71.0,30.06,SSW,202,5.8,-999.0,83,-99.99,,,0.07,Acu-Link.com,2013-07-03 01:20:00,
2013-07-02 21:35:00,76.5,71.3,30.06,WSW,247,4.2,-999.0,84,-99.99,,,0.07,Acu-Link.com,2013-07-03 01:35:00,
2013-07-02 21:51:00,76.3,71.4,30.07,NNE,22,2.2,-999.0,85,-99.99,,,0.07,Acu-Link.com,2013-07-03 01:51:00,
2013-07-02 22:06:00,76.5,71.6,30.07,ESE,112,2.7,-999.0,85,-99.99,,,0.07,Acu-Link.com,2013-07-03 02:06:00,
2013-07-02 22:21:00,76.5,71.6,30.07,SSW,202,3.7,-999.0,85,-99.99,,,0.07,Acu-Link.com,2013-07-03 02:21:00,
2013-07-02 22:36:00,76.3,71.1,30.07,SSW,202,3.7,-999.0,84,-99.99,,,0.07,Acu-Link.com,2013-07-03 02:36:00,
2013-07-02 22:52:00,76.3,71.4,30.08,SSW,202,3.2,-999.0,85,-99.99,,,0.07,Acu-Link.com,2013-07-03 02:52:00,
2013-07-02 23:07:00,76.1,71.6,30.08,SSE,157,3.2,-999.0,86,-99.99,,,0.07,Acu-Link.com,2013-07-03 03:07:00,
2013-07-02 23:22:00,75.7,70.9,30.08,ESE,112,1.7,-999.0,85,-99.99,,,0.07,Acu-Link.com,2013-07-03 03:22:00,
2013-07-02 23:37:00,75.6,70.8,30.08,South,180,2.7,-999.0,85,-99.99,,,0.07,Acu-Link.com,2013-07-03 03:37:00,
2013-07-02 23:52:00,76.1,69.8,30.07,ESE,112,5.3,-999.0,81,-99.99,,,0.07,Acu-Link.com,2013-07-03 03:52:00,